GIA6101 WIMM-OEMA

Flight info

Callsign GIA6101
Flight time N/A
Altitude 34000
Route INANG DCT MABIX P570 POPAK/N0483F360 P570 TVM UL425 ASPUX N315 KUTVI/N0482F380 N315 SITOL DCT PUSON L883 KITUB Y511 ELONU
Aircraft A339/H-SADE1E2E3GHIJ3J5M1P2RWXY/LB2D1

Departure

Time N/A
Airport Kualanamu International Airport (WIMM)

Arrival

Time 2026-04-22 14:40
Airport Prince Mohammad Bin Abdulaziz Airport (OEMA)
Time Latitude Longitude Altitude Speed Heading
2026-04-22 14:07 23.90934 41.41312 37581 ft 470 kts 287°
2026-04-22 14:07 23.91902 41.37890 36883 ft 475 kts 287°
2026-04-22 14:08 23.92879 41.34443 36215 ft 476 kts 287°
2026-04-22 14:08 23.93862 41.30983 35609 ft 476 kts 287°
2026-04-22 14:08 23.94843 41.27533 35025 ft 476 kts 287°
2026-04-22 14:08 23.95814 41.24114 34452 ft 475 kts 287°
2026-04-22 14:09 23.96790 41.20667 33871 ft 474 kts 287°
2026-04-22 14:09 23.97757 41.17246 33293 ft 474 kts 287°
2026-04-22 14:09 23.98733 41.13790 32704 ft 473 kts 287°
2026-04-22 14:09 23.99703 41.10349 32164 ft 472 kts 287°
2026-04-22 14:10 24.00664 41.06936 31599 ft 471 kts 287°
2026-04-22 14:10 24.01622 41.03529 31005 ft 470 kts 287°
2026-04-22 14:10 24.02590 41.00083 30394 ft 470 kts 287°
2026-04-22 14:10 24.03540 40.96699 29775 ft 471 kts 287°
2026-04-22 14:11 24.04502 40.93280 29145 ft 471 kts 287°
2026-04-22 14:11 24.05477 40.89814 28490 ft 471 kts 287°
2026-04-22 14:11 24.06435 40.86404 27838 ft 471 kts 287°
2026-04-22 14:11 24.07396 40.82978 27169 ft 472 kts 287°
2026-04-22 14:12 24.08353 40.79557 26609 ft 469 kts 287°
2026-04-22 14:12 24.09300 40.76169 26203 ft 463 kts 287°
2026-04-22 14:12 24.10223 40.72863 25792 ft 458 kts 287°
2026-04-22 14:12 24.11147 40.69548 25372 ft 453 kts 287°
2026-04-22 14:13 24.12061 40.66267 24950 ft 448 kts 287°
2026-04-22 14:13 24.12963 40.63022 24586 ft 442 kts 287°
2026-04-22 14:13 24.13849 40.59837 24260 ft 435 kts 287°
2026-04-22 14:13 24.14720 40.56700 23941 ft 428 kts 287°
2026-04-22 14:14 24.15519 40.53627 23353 ft 415 kts 284°
2026-04-22 14:14 24.16152 40.50632 22842 ft 399 kts 282°
2026-04-22 14:14 24.16627 40.47709 22338 ft 384 kts 278°
2026-04-22 14:14 24.16984 40.44873 21837 ft 371 kts 278°
2026-04-22 14:15 24.17311 40.42122 21334 ft 359 kts 277°
2026-04-22 14:15 24.17627 40.39452 20832 ft 350 kts 277°
2026-04-22 14:15 24.17939 40.36819 20336 ft 347 kts 277°
2026-04-22 14:15 24.18250 40.34201 19866 ft 349 kts 277°
2026-04-22 14:16 24.18356 40.33309 19697 ft 350 kts 277°
2026-04-22 14:17 24.19606 40.22780 17739 ft 360 kts 277°
2026-04-22 14:18 24.19928 40.20062 17241 ft 362 kts 277°
2026-04-22 14:18 24.20247 40.17365 16704 ft 358 kts 277°
2026-04-22 14:18 24.20563 40.14690 16183 ft 345 kts 277°
2026-04-22 14:18 24.20865 40.12130 15679 ft 334 kts 277°
2026-04-22 14:19 24.21156 40.09655 15179 ft 325 kts 277°
2026-04-22 14:19 24.21440 40.07230 14675 ft 316 kts 277°
2026-04-22 14:19 24.21716 40.04874 14173 ft 309 kts 277°
2026-04-22 14:19 24.21986 40.02568 13673 ft 303 kts 277°
2026-04-22 14:20 24.22514 39.98046 12698 ft 302 kts 277°
2026-04-22 14:20 24.22781 39.95758 12204 ft 308 kts 277°
2026-04-22 14:20 24.23052 39.93436 11668 ft 306 kts 277°
2026-04-22 14:21 24.24528 39.89288 10640 ft 293 kts 317°
2026-04-22 14:21 24.26226 39.88142 10166 ft 292 kts 342°
2026-04-22 14:22 24.30236 39.87245 9150 ft 295 kts 350°
2026-04-22 14:22 24.32250 39.86853 8644 ft 289 kts 350°
2026-04-22 14:22 24.36169 39.86061 8160 ft 282 kts 349°
2026-04-22 14:23 24.38063 39.85667 8157 ft 271 kts 349°
2026-04-22 14:23 24.39870 39.85290 8154 ft 259 kts 349°
2026-04-22 14:23 24.41630 39.84921 8159 ft 257 kts 349°
2026-04-22 14:23 24.43373 39.84555 8161 ft 258 kts 349°
2026-04-22 14:24 24.45124 39.84188 8162 ft 258 kts 349°
2026-04-22 14:24 24.46891 39.83815 8162 ft 257 kts 349°
2026-04-22 14:24 24.48609 39.83447 8156 ft 247 kts 349°
2026-04-22 14:24 24.50267 39.83089 8153 ft 236 kts 349°
2026-04-22 14:25 24.51862 39.82745 8158 ft 234 kts 349°
2026-04-22 14:25 24.53469 39.82398 8161 ft 235 kts 349°
2026-04-22 14:25 24.55078 39.82052 8162 ft 235 kts 349°
2026-04-22 14:25 24.56663 39.81711 8162 ft 235 kts 349°
2026-04-22 14:26 24.58291 39.81365 8162 ft 235 kts 349°
2026-04-22 14:26 24.59884 39.81029 8162 ft 235 kts 349°
2026-04-22 14:26 24.61495 39.80689 8162 ft 235 kts 349°
2026-04-22 14:26 24.63086 39.80352 8157 ft 236 kts 349°
2026-04-22 14:27 24.64718 39.80006 7937 ft 239 kts 349°
2026-04-22 14:27 24.66352 39.79659 7591 ft 244 kts 349°
2026-04-22 14:27 24.68035 39.79302 7260 ft 248 kts 349°
2026-04-22 14:27 24.69705 39.78947 7093 ft 245 kts 349°
2026-04-22 14:28 24.71374 39.78593 6806 ft 247 kts 349°
2026-04-22 14:28 24.73068 39.78232 6530 ft 248 kts 349°
2026-04-22 14:28 24.74735 39.77877 6461 ft 240 kts 349°
2026-04-22 14:28 24.76343 39.77535 6456 ft 230 kts 349°
2026-04-22 14:29 24.77916 39.77200 6460 ft 229 kts 349°
2026-04-22 14:29 24.79466 39.76871 6461 ft 229 kts 349°
2026-04-22 14:29 24.81024 39.76539 6462 ft 229 kts 349°
2026-04-22 14:29 24.82591 39.76206 6462 ft 229 kts 349°
2026-04-22 14:30 24.84159 39.75872 6463 ft 229 kts 349°
2026-04-22 14:30 24.85729 39.75538 6463 ft 229 kts 349°
2026-04-22 14:30 24.87306 39.75203 6463 ft 229 kts 349°
2026-04-22 14:30 24.88891 39.74866 6463 ft 229 kts 349°
2026-04-22 14:31 24.90440 39.74508 6460 ft 229 kts 341°
2026-04-22 14:31 24.91777 39.73570 6456 ft 229 kts 309°
2026-04-22 14:31 24.92472 39.72024 6461 ft 229 kts 278°
2026-04-22 14:31 24.92402 39.70269 6469 ft 230 kts 259°
2026-04-22 14:32 24.92056 39.68547 6467 ft 229 kts 257°
2026-04-22 14:32 24.91688 39.66842 6464 ft 229 kts 257°
2026-04-22 14:32 24.91165 39.65187 6389 ft 230 kts 236°
2026-04-22 14:32 24.90011 39.64027 6144 ft 230 kts 204°
2026-04-22 14:33 24.88467 39.63696 5945 ft 228 kts 176°
2026-04-22 14:33 24.86878 39.63950 5873 ft 231 kts 168°
2026-04-22 14:33 24.85308 39.64346 6176 ft 233 kts 167°
2026-04-22 14:33 24.83754 39.64742 6358 ft 231 kts 167°
2026-04-22 14:34 24.82176 39.65120 6359 ft 229 kts 168°
2026-04-22 14:34 24.80635 39.65468 6354 ft 225 kts 169°
2026-04-22 14:34 24.79133 39.65793 6315 ft 214 kts 169°
2026-04-22 14:34 24.77716 39.66092 6114 ft 203 kts 169°
2026-04-22 14:35 24.76333 39.66381 5837 ft 198 kts 169°
2026-04-22 14:35 24.75004 39.66659 5575 ft 193 kts 169°
2026-04-22 14:35 24.73722 39.66927 5331 ft 185 kts 169°
2026-04-22 14:35 24.72483 39.67187 5076 ft 175 kts 169°
2026-04-22 14:36 24.71330 39.67429 4847 ft 165 kts 169°
2026-04-22 14:36 24.70227 39.67662 4629 ft 156 kts 169°
2026-04-22 14:36 24.69167 39.67885 4438 ft 156 kts 169°
2026-04-22 14:36 24.68098 39.68111 4243 ft 156 kts 169°
2026-04-22 14:37 24.67034 39.68337 4044 ft 156 kts 169°
2026-04-22 14:37 24.65968 39.68563 3840 ft 155 kts 169°
2026-04-22 14:37 24.64906 39.68788 3632 ft 155 kts 169°
2026-04-22 14:37 24.63855 39.69011 3423 ft 154 kts 169°
2026-04-22 14:38 24.62798 39.69236 3212 ft 154 kts 169°
2026-04-22 14:38 24.61753 39.69458 3005 ft 153 kts 169°
2026-04-22 14:38 24.60714 39.69678 2802 ft 153 kts 169°
2026-04-22 14:38 24.59673 39.69899 2593 ft 153 kts 169°
2026-04-22 14:39 24.58630 39.70117 2396 ft 152 kts 169°
2026-04-22 14:39 24.57602 39.70338 2220 ft 151 kts 169°
2026-04-22 14:39 24.56599 39.70548 2168 ft 137 kts 170°
2026-04-22 14:40 24.55459 39.70797 2168 ft 57 kts 170°
2026-04-22 14:40 24.55203 39.70850 2167 ft 17 kts 170°
2026-04-22 14:40 24.55047 39.70882 2167 ft 26 kts 169°
2026-04-22 14:40 24.54885 39.70968 2167 ft 26 kts 133°
2026-04-22 14:41 24.54827 39.71072 2167 ft 11 kts 99°
2026-04-22 14:41 24.54836 39.71145 2167 ft 9 kts 77°
2026-04-22 14:41 24.54851 39.71216 2167 ft 10 kts 76°
2026-04-22 14:41 24.54877 39.71289 2167 ft 10 kts 40°
2026-04-22 14:42 24.54950 39.71291 2167 ft 11 kts 347°
2026-04-22 14:42 24.55031 39.71273 2167 ft 12 kts 349°
2026-04-22 14:42 24.55120 39.71254 2167 ft 13 kts 349°
2026-04-22 14:42 24.55215 39.71233 2167 ft 14 kts 349°
2026-04-22 14:43 24.55316 39.71212 2167 ft 15 kts 348°
2026-04-22 14:43 24.55398 39.71193 2167 ft 6 kts 349°
2026-04-22 14:43 24.55447 39.71195 2167 ft 6 kts 35°
2026-04-22 14:43 24.55460 39.71244 2167 ft 5 kts 79°
2026-04-22 14:44 24.55464 39.71265 2167 ft 0 kts 78°